Showing default

HYSIS, 43719

Orbit data source: Space-Track

HYSIS, 43719 is a payload satellite owned by ISRO (IN) in SSO that was launched on Thu, 29 Nov 2018 UTC via a PSLV launch vehicle from the Sirharikota (SRI). Payloads include a variety of satellites, spacecraft, and rockets equipped with specific instruments for various scientific and technological missions. These include communications satellites like Starlink; space stations such as the ISS; scientific satellites like the Hubble; Earth observation satellites from companies like Planet Labs, Umbra, and HawkEye 360; GPS; miniature CubeSats for education and research; and military/defense satellites.

Loading next visibility...
HYSIS details
Identifier
43719, 2018-096A
Orbit
SSO
Last TLE update7 hours ago
Origin
Flag of INISRO (IN / IND)
ManufacturerISRO
MissionOperational Civil Imaging
Bus & MotorSSB-2, AOCS
Mass380 kg wet, ~350 kg dry
Launch date (UTC)
2018-11-29 (6 years ago)
Launch vehicle
PSLV
Launch site
Sirharikota (SRI)
Object type
Payload
Rocket body
Debris
Shape & HBRBox + 2 Pan, 6 m
Radar Cross Section4.485 m², Large (>1 m²)

Expand to show TLE details & history

TLE from 7 hours ago
0 HYSIS
1 43719U 18096A   24361.23033724  .00003180  00000-0  43961-3 0  9996
2 43719  97.8435  60.5825 0001900  81.5346 278.6081 14.78771614327926
Epoch: 2024-12-26T05:31Z
Definitive object data (Epoch: 2024-12-26T05:31:41.137Z)
Latitude
Longitude-117.55162°
Altitude636.027 km
Speed7.54 km/s
True Right ascension04h 02m 19s
True Declination0° 00' 00"
Sunlit
Object was in full shadow at TLE epoch
Visualization TLE readout
Latitude51.43465°
Longitude-127.17328°
Altitude640.341 km
Speed7.544 km/s
Apparent Right ascension01h 23m 32s
Apparent Declination9° 40' 42"
Sunlit
Object is in full shadow
Visualization observer readout
Local Sidereal Time11:36:57
Azimuth327.515° NNW
Elevation-34.604°
Doppler factor1
Orbital elements
Apogee altitude631.576 km
Perigee altitude628.913 km
Semi-major axis7,008.381 km
Eccentricity0.00019
Inclination97.8435°
RAAN60.5825°
Arg. of periapsis81.5346°
True anomaly278.58657°
Mean anomaly278.6081°
Eccentric anomaly278.59734°
Mean motion3.69927 °/min
BSTAR0.00043961
Orbital period97.32 mins
Loading maneuver chart data...

HYSIS Visibility forecast

Observer location: undefined°, undefined

Span
Click to sort rows by Start time (UTC) header in descending order
Start Az.
Max El. time (UTC)
Max El. Az.
Max El.
End time (UTC)
End Az.
4 mins2024-12-26 15:52:28.640Z62.281° ENE2024-12-26 15:54:28.640Z90.391° ESE13.483°2024-12-26 15:56:28.640Z118.975° SE
6 mins2024-12-26 17:28:28.640Z353.679° N2024-12-26 17:31:28.640Z272.723° WNW36.861°2024-12-26 17:34:28.640Z216.201° SW
7 mins2024-12-27 04:23:28.640Z178.303° S2024-12-27 04:26:28.640Z248.588° W42.727°2024-12-27 04:30:28.640Z341.258° N
|